Poughkeepsie, NY

9:57 PM EDT on April 21, 2018 (GMT -0400)
Dutchess County

Weather History for KPOU - November, 2011

Change the Weather History Date:

Monday, November 14, 2011

  Actual Average Record
Temperature  
Mean Temperature 52 °F 42 °F  
Max Temperature 66 °F 53 °F 72 °F (1973)
Min Temperature 38 °F 31 °F 13 °F (1986)
Degree Days  
Heating Degree Days 13 23  
Month to date heating degree days 261 292  
Since 1 July heating degree days 675 868  
Cooling Degree Days 0 0  
Month to date cooling degree days 0 0  
Year to date cooling degree days 908 672  
Growing Degree Days 2 (Base 50)    
Moisture  
Dew Point 42 °F    
Average Humidity 67    
Maximum Humidity 86    
Minimum Humidity 50    
Precipitation  
Precipitation T in 0.11 in 2.01 in (1972)
Month to date precipitation 0.07 1.58  
Year to date precipitation 51.93 41.11  
Sea Level Pressure  
Sea Level Pressure 29.82 in    
Wind  
Wind Speed 3 mph (SSW)    
Max Wind Speed 15 mph    
Max Gust Speed 20 mph    
Visibility 10 miles    
Events      
T = Trace of Precipitation, MM = Missing Value Source: NWS Daily Summary

Daily Weather History Graph

Daily Weather History Graph

Search for Another Location

Airport or City:

Astronomy

Nov. 14, 2011 Rise Set
Actual Time 6:42 AM EST 4:36 PM EST
Civil Twilight 6:13 AM EST 5:06 PM EST
Nautical Twilight 5:39 AM EST 5:39 PM EST
Astronomical Twilight 5:06 AM EST 6:12 PM EST
Moon 7:39 PM EST (11/14) 10:00 AM EST (11/14)
Length of Visible Light 10h 52m
Length of Day
9h 53m
Waning Gibbous, 87% of the Moon is Illuminated
Nov 14
Waning Gibbous
Nov 18
Last Quarter
Nov 25
New
Dec 2
First Quarter
Dec 10
Full

Hourly Weather History & Observations

Time (EST) Temp. Windchill Dew Point Humidity Pressure Visibility Wind Dir Wind Speed Gust Speed Precip Events Conditions
12:53 AM 52.0 °F - 34.0 °F 50% 29.90 in 10.0 mi South 3.5 mph - N/A   Partly Cloudy
1:53 AM 45.0 °F - 35.1 °F 68% 29.89 in 10.0 mi Calm Calm - N/A   Clear
2:53 AM 41.0 °F - 35.1 °F 79% 29.89 in 10.0 mi Calm Calm - N/A   Clear
3:53 AM 42.1 °F - 36.0 °F 79% 29.89 in 10.0 mi Calm Calm - N/A   Clear
4:53 AM 42.1 °F - 35.1 °F 76% 29.89 in 10.0 mi Calm Calm - N/A   Clear
5:53 AM 39.9 °F - 35.1 °F 83% 29.88 in 10.0 mi Calm Calm - N/A   Clear
6:53 AM 39.2 °F 37.0 °F 35.6 °F 87% 29.90 in 10.0 mi Variable 3.5 mph - N/A   Clear
7:53 AM 46.0 °F - 37.9 °F 73% 29.90 in 10.0 mi Calm Calm - N/A   Clear
8:53 AM 51.1 °F - 37.9 °F 61% 29.90 in 10.0 mi SE 4.6 mph - N/A   Partly Cloudy
9:53 AM 55.9 °F - 39.0 °F 53% 29.89 in 10.0 mi Variable 3.5 mph - N/A   Mostly Cloudy
10:53 AM 59.0 °F - 42.1 °F 53% 29.88 in 10.0 mi WSW 4.6 mph - N/A   Overcast
11:53 AM 60.1 °F - 42.1 °F 51% 29.85 in 10.0 mi SW 4.6 mph - N/A   Overcast
12:53 PM 63.0 °F - 44.1 °F 50% 29.83 in 10.0 mi SW 10.4 mph - N/A   Overcast
1:53 PM 60.1 °F - 45.0 °F 57% 29.82 in 10.0 mi West 5.8 mph - N/A   Overcast
2:53 PM 62.1 °F - 45.0 °F 53% 29.80 in 10.0 mi Calm Calm - 0.00 in   Overcast
3:53 PM 60.1 °F - 46.9 °F 62% 29.78 in 10.0 mi Calm Calm - 0.00 in   Overcast
4:53 PM 57.9 °F - 46.0 °F 65% 29.77 in 10.0 mi SE 3.5 mph - N/A   Overcast
5:53 PM 55.0 °F - 46.9 °F 74% 29.75 in 10.0 mi Calm Calm - N/A   Mostly Cloudy
6:53 PM 53.1 °F - 46.0 °F 77% 29.74 in 10.0 mi Calm Calm - N/A   Clear
7:53 PM 50.0 °F - 46.4 °F 87% 29.73 in 10.0 mi Calm Calm - N/A   Clear
8:53 PM 55.0 °F - 48.0 °F 77% 29.70 in 10.0 mi SSE 5.8 mph - N/A   Scattered Clouds
9:53 PM 57.9 °F - 48.9 °F 72% 29.70 in 10.0 mi Calm Calm - N/A   Overcast
10:53 PM 66.0 °F - 50.0 °F 56% 29.67 in 10.0 mi South 9.2 mph - N/A   Clear
11:53 PM 64.9 °F - 51.1 °F 61% 29.71 in 10.0 mi WNW 9.2 mph - N/A   Overcast